Torna al catalogo

COSMOS 2535 DEB

AttivoSSO
NORAD 44712·DEBRIS·🇷🇺 Russia

Lanciato Jul 10, 2019 da Plesetsk Cosmodrome

Loading…

Prossimi Passaggi (prossime 24 ore)

TLE

In scadenzaSource: Space-Track

Epoca: Sep 3, 2026, 05:38 UTC

1 44712U 19039P   26246.23503098  .00001293  00000-0  13574-3 0  9998
2 44712  97.6832 243.4412 0039381 107.7957 252.7564 14.90623297374115

Traccia COSMOS 2535 DEB in tempo reale con AllMySat

Download on the App Store